TimeCST,TemperatureF,Dew PointF,Humidity,Sea Level PressureIn,VisibilityMPH,Wind Direction,Wind SpeedMPH,Gust SpeedMPH,PrecipitationIn,Events,Conditions,WindDirDegrees,DateUTC
12:54 AM,36.0,24.1,62,29.66,10.0,West,5.8,-,N/A,,Clear,280,2011-11-15 06:54:00
1:54 AM,32.0,24.1,73,29.67,10.0,WSW,3.5,-,N/A,,Partly Cloudy,250,2011-11-15 07:54:00
2:54 AM,32.0,23.0,69,29.67,10.0,SSW,4.6,-,N/A,,Partly Cloudy,210,2011-11-15 08:54:00
3:54 AM,30.0,24.1,79,29.65,10.0,SSE,4.6,-,N/A,,Clear,160,2011-11-15 09:54:00
4:54 AM,32.0,25.0,75,29.65,10.0,South,5.8,-,N/A,,Mostly Cloudy,180,2011-11-15 10:54:00
5:54 AM,33.1,25.0,72,29.65,10.0,South,4.6,-,N/A,,Overcast,180,2011-11-15 11:54:00
7:17 AM,35.6,30.2,81,29.66,6.0,SSW,9.2,-,0.04,Rain,Rain,210,2011-11-15 13:17:00
7:54 AM,35.1,32.0,89,29.70,6.0,SSW,3.5,-,0.09,Rain,Light Rain,210,2011-11-15 13:54:00
8:54 AM,36.0,33.1,89,29.67,10.0,ENE,4.6,-,0.04,,Overcast,60,2011-11-15 14:54:00
9:54 AM,39.0,36.0,89,29.64,10.0,ESE,6.9,-,N/A,,Scattered Clouds,110,2011-11-15 15:54:00
10:54 AM,46.0,37.9,73,29.62,10.0,South,12.7,-,N/A,,Clear,180,2011-11-15 16:54:00
11:54 AM,48.0,34.0,58,29.62,10.0,SW,9.2,19.6,N/A,,Clear,230,2011-11-15 17:54:00
12:54 PM,51.1,33.1,50,29.60,10.0,WSW,9.2,-,N/A,,Clear,240,2011-11-15 18:54:00
1:54 PM,53.1,33.1,47,29.60,10.0,SW,12.7,19.6,N/A,,Clear,230,2011-11-15 19:54:00
2:54 PM,52.0,32.0,47,29.62,10.0,West,15.0,23.0,N/A,,Clear,260,2011-11-15 20:54:00
3:54 PM,48.9,30.9,50,29.64,10.0,WSW,10.4,-,N/A,,Clear,250,2011-11-15 21:54:00
4:54 PM,46.9,30.9,54,29.67,10.0,West,12.7,-,N/A,,Partly Cloudy,260,2011-11-15 22:54:00
6:54 PM,42.1,26.1,53,29.73,10.0,West,10.4,18.4,N/A,,Partly Cloudy,260,2011-11-16 00:54:00
7:54 PM,41.0,23.0,49,29.77,10.0,WNW,18.4,32.2,N/A,,Clear,290,2011-11-16 01:54:00
8:54 PM,37.9,19.9,48,29.80,10.0,West,17.3,31.1,N/A,,Clear,280,2011-11-16 02:54:00
9:54 PM,35.1,19.9,54,29.83,10.0,West,9.2,-,N/A,,Clear,270,2011-11-16 03:54:00
10:54 PM,34.0,19.0,54,29.83,10.0,WNW,16.1,-,N/A,,Clear,290,2011-11-16 04:54:00
11:54 PM,32.0,19.9,61,29.85,10.0,WNW,11.5,-,N/A,,Clear,290,2011-11-16 05:54:00